This is the latest recevied weather packets stored in our database for station/object W1RCP. If no packets are shown the sender has not sent any weather packets the latest 10 day(s).
| Time | Temp. | Humidity | Pressure | Rain* | Wind** | Luminosity | Snow |
|---|---|---|---|---|---|---|---|
| 1788624854 | 30.56° C | 73% | 1026.1 hPa | 0 mm | - | 885 W/m² | - |
| 1788624552 | 30.56° C | 72% | 1026.4 hPa | 0 mm | - | 887 W/m² | - |
| 1788624247 | 31.67° C | 69% | 1026 hPa | 0 mm | - | 692 W/m² | - |
| 1788623947 | 30.56° C | 72% | 1026 hPa | 0 mm | - | 665 W/m² | - |
| 1788623647 | 30° C | 72% | 1026.4 hPa | 0 mm | - | 771 W/m² | - |
| 1788623345 | 30° C | 74% | 1026.3 hPa | 0 mm | - | 781 W/m² | - |
| 1788623041 | 30° C | 72% | 1026.2 hPa | 0 mm | - | 844 W/m² | - |
| 1788622736 | 30° C | 74% | 1026.3 hPa | 0 mm | - | 480 W/m² | - |
| 1788622440 | 30° C | 72% | 1026.4 hPa | 0 mm | - | 836 W/m² | - |
| 1788622132 | 30° C | 72% | 1026.6 hPa | 0 mm | - | 223 W/m² | - |
| 1788621831 | 29.44° C | 75% | 1026.6 hPa | 0 mm | - | 346 W/m² | - |
| 1788621527 | 30.56° C | 70% | 1026.7 hPa | 0 mm | - | 337 W/m² | - |
| 1788621223 | 30.56° C | 70% | 1026.6 hPa | 0 mm | - | 285 W/m² | - |
| 1788620923 | 30° C | 74% | 1026.5 hPa | 0 mm | - | 488 W/m² | - |
| 1788620617 | 29.44° C | 75% | 1026.6 hPa | 0 mm | - | 755 W/m² | - |
| 1788620315 | 29.44° C | 74% | 1026.6 hPa | 0 mm | - | 579 W/m² | - |
| 1788620014 | 29.44° C | 74% | 1026.6 hPa | 0 mm | - | 731 W/m² | - |
| 1788619713 | 28.89° C | 78% | 1026.6 hPa | 0 mm | - | 677 W/m² | - |
| 1788619409 | 29.44° C | 75% | 1026.4 hPa | 0 mm | - | 159 W/m² | - |
| 1788619107 | 29.44° C | 75% | 1026.4 hPa | 0 mm | - | 345 W/m² | - |
| 1788618802 | 28.89° C | 80% | 1026.5 hPa | 0 mm | - | 580 W/m² | - |
| 1788618501 | 28.89° C | 76% | 1026.6 hPa | 0 mm | - | 634 W/m² | - |
| 1788618195 | 28.89° C | 77% | 1026.5 hPa | 0 mm | - | 139 W/m² | - |
| 1788617892 | 28.33° C | 80% | 1026.4 hPa | 0 mm | - | 514 W/m² | - |
| 1788617587 | 28.33° C | 81% | 1026.5 hPa | 0 mm | - | 505 W/m² | - |
* Rain latest hour (hover to see other rain measurements)
** Current wind speed in m/s (hover to see current wind gust speed)